#timestamp,LO_Frequency,Hit,StdDev 
1575658815.2,286046999.7,N
1575658835.0,286047002.5,N
1575658835.9,286047002.5,N
1575658855.8,286047002.4,N
1575658875.6,286047002.4,N
1575658895.5,286047004.4,Y
1575658915.3,286047000.0,P
1575658935.1,286046998.4,N
1575658955.9,286047001.2,N
1575658975.7,286047000.6,N
1575658995.6,286047000.2,N
1575659015.4,286047000.2,N
1575659035.2,286047001.1,N
1575659055.1,286047001.1,N
1575659056.0,286047001.1,N
1575659075.8,286047002.4,N
1575659095.6,286047002.4,N
1575659115.5,286047002.4,N
1575659135.3,286047000.1,N
1575659155.2,286047000.0,N
1575659175.9,286047002.8,N
1575659195.7,286047002.1,N
1575659215.6,286047001.7,N
1575659235.4,286047002.2,N
1575659255.2,286046999.7,N
1575659275.1,286047002.7,N
1575659276.0,286047002.7,N
1575659295.8,286047001.9,N
1575659315.7,286046999.8,N
1575659335.5,286047000.6,N
1575659355.3,286047000.8,N
1575659375.2,286046999.9,N
1575659395.0,286047002.1,N
1575659395.9,286047002.1,N
1575659415.8,286047000.1,N
1575659435.6,286047001.5,N
1575659455.4,286047001.4,N
1575659475.3,286047003.0,N
1575659495.1,286047005.6,Y
1575659515.8,286047002.9,P
1575659535.7,286047004.3,P
1575659555.5,286047004.2,P
1575659575.4,286047002.4,N
1575659595.2,286047001.4,N
1575659615.0,286047001.8,N
1575659615.9,286047001.8,N
1575659635.8,286047001.6,N
1575659655.6,286047002.1,N
1575659675.5,286047003.8,Y
1575659695.3,286047002.7,P
1575659715.1,286047002.7,P
1575659735.9,286047002.5,P
1575659755.7,286047001.8,Y
1575659775.5,286047002.0,P
1575659795.4,286047003.6,P
1575659815.2,286047003.7,P
1575659835.1,286047002.2,Y
1575659836.0,286047002.2,P
1575659855.8,286046998.3,P
1575659875.6,286047001.0,N
1575659895.5,286046998.4,N
1575659915.3,286046999.4,N
1575659935.2,286046998.4,N
1575659955.9,286046998.9,N
1575659975.7,286046999.5,N
1575659995.6,286046996.6,N
1575660015.4,286046998.7,N
1575660035.3,286046996.5,N
1575660055.1,286046998.2,N
1575660056.0,286046998.2,N
1575660075.8,286046998.3,N
1575660095.7,286046998.3,N
1575660115.5,286047001.1,N
1575660135.3,286047001.1,N
1575660155.2,286046998.2,N
1575660175.0,286046998.9,N
1575660175.9,286046998.9,N
1575660195.8,286046998.3,N
1575660215.6,286046997.6,N
1575660235.4,286046995.3,N
1575660255.3,286046995.3,N
1575660275.1,286046995.4,N
1575660295.9,286046997.0,N
1575660315.7,286046998.0,N
1575660335.5,286046998.0,N
1575660355.4,286046995.3,N
1575660375.2,286046995.5,N
1575660395.0,286046995.8,N
1575660396.0,286046995.8,N
1575660415.8,286046995.6,N
1575660435.6,286046997.7,N
1575660455.5,286046999.2,N
1575660475.3,286047000.8,N
1575660495.1,286047000.0,N
1575660515.9,286047001.5,N
1575660535.7,286047001.9,N
1575660555.6,286047001.6,N
1575660575.4,286047001.8,N
1575660595.2,286047002.4,N
1575660615.1,286047004.2,N
1575660616.0,286047004.2,N
1575660635.8,286047003.3,N
1575660655.7,286047003.8,N
1575660675.5,286047003.1,N
1575660695.3,286047003.6,N
1575660715.2,286047003.6,N
1575660735.9,286047001.8,N
1575660755.7,286047003.7,N
1575660775.6,286047001.3,N
1575660795.4,286047002.7,N
1575660815.3,286047002.3,N
1575660835.1,286047000.4,N
1575660836.0,286047000.4,N
1575660855.8,286047000.0,N
1575660875.7,286047000.8,N
1575660895.5,286047000.3,N
1575660915.3,286046999.7,N
1575660935.2,286047001.3,N
1575660955.0,286047001.8,N
1575660955.9,286047001.8,N
1575660975.8,286047001.8,N
1575660995.6,286047002.3,N
1575661015.4,286047002.1,N
1575661035.3,286047002.2,N
1575661055.1,286047002.9,N
1575661075.9,286047001.3,N
1575661095.7,286047002.0,N
1575661115.5,286047002.0,N
1575661135.4,286047002.0,N
1575661155.2,286047004.0,Y
1575661175.1,286046998.6,P
1575661176.0,286046998.6,N
1575661195.8,286046996.9,N
1575661215.6,286046999.6,N
1575661235.5,286046999.1,N
1575661255.3,286046998.6,N
1575661275.1,286046998.7,N
1575661295.9,286046998.2,N
1575661315.7,286047001.1,N
1575661335.6,286046998.6,N
1575661355.4,286047000.6,N
1575661375.2,286047000.6,N
1575661395.1,286047001.2,N
1575661396.0,286047001.2,N
1575661415.8,286046998.2,N
1575661435.6,286046998.7,N
1575661455.5,286046998.5,N
1575661475.3,286046999.1,N
1575661495.2,286046996.9,N
1575661515.9,286046996.5,N
1575661535.7,286046998.9,N
1575661555.6,286046997.1,N
1575661575.4,286046997.7,N
1575661595.2,286046998.0,N
1575661615.1,286046999.0,N
1575661616.0,286046999.0,N
1575661635.8,286046998.5,N
1575661655.7,286047000.8,N
1575661675.5,286046998.6,N
1575661695.3,286046999.1,N
1575661715.2,286046997.0,N
1575661735.0,286046999.0,N
1575661735.9,286046999.0,N
1575661755.8,286046998.1,N
1575661775.6,286046998.6,N
1575661795.4,286046998.5,N
1575661815.3,286046999.3,N
1575661835.1,286046998.8,N
1575661855.8,286046998.8,N
1575661875.7,286046996.9,N
1575661895.5,286046999.1,N
1575661915.4,286046998.6,N
1575661935.2,286046998.4,N
1575661955.0,286046998.9,N
1575661955.9,286046998.9,N
1575661975.8,286046999.1,N
1575661995.6,286046999.1,N
1575662015.4,286046999.5,N
1575662035.3,286046996.6,Y
1575662055.1,286047001.1,P
1575662075.9,286046998.3,N
1575662095.7,286046998.5,N
1575662115.5,286046999.5,N
1575662135.4,286046997.4,N
1575662155.2,286046999.5,N
1575662175.1,286046999.4,N
1575662176.0,286046999.4,N
1575662195.8,286046997.7,N
1575662215.6,286046997.9,N
1575662235.5,286046997.7,N
1575662255.3,286046997.2,N
1575662275.1,286046997.1,N
1575662295.9,286046998.0,N
1575662315.7,286046995.4,Y
1575662335.6,286046999.3,P
1575662355.4,286046999.4,N
1575662375.2,286046997.3,P
1575662395.1,286046996.6,Y
1575662396.0,286046996.6,P
